• In Belgien
  • Länderverzeichnis
  • Für 7 Tage
  • Wassertemperatur
  • Satellitenkarten
  • Wetterkarte
  • Widgets
  • user-avatar
    Anmelden

    Stündliche Wetter Kreta

    Heute, 13 Dezember, Mittwoch

    Zeit Temperatur Niederschläge Wind Luftdruck Luftfeuchtigkeit
    00:00 +10°C° 0 mm 2 m/S 714 mmHg 73%
    01:00 +10°C° 0 mm 2 m/S 714 mmHg 72%
    02:00 +10°C° 0 mm 3 m/S 714 mmHg 71%
    03:00 +10°C° 0 mm 3 m/S 713 mmHg 71%
    04:00 +10°C° 0 mm 3 m/S 713 mmHg 71%
    05:00 +10°C° 0 mm 3 m/S 713 mmHg 71%
    06:00 +10°C° 0 mm 3 m/S 713 mmHg 70%
    07:00 +10°C° 0 mm 3 m/S 713 mmHg 68%
    08:00 +10°C° 0 mm 3 m/S 713 mmHg 67%
    09:00 +12°C° 0 mm 3 m/S 714 mmHg 64%
    10:00 +13°C° 0 mm 4 m/S 714 mmHg 62%
    11:00 +15°C° 0 mm 4 m/S 714 mmHg 59%
    12:00 +15°C° 0 mm 4 m/S 714 mmHg 60%
    13:00 +15°C° 0 mm 5 m/S 714 mmHg 60%
    14:00 +16°C° 0 mm 5 m/S 713 mmHg 60%
    15:00 +15°C° 0 mm 5 m/S 713 mmHg 65%
    16:00 +14°C° 0 mm 5 m/S 713 mmHg 69%
    17:00 +13°C° 0 mm 5 m/S 713 mmHg 73%
    18:00 +13°C° 0 mm 5 m/S 713 mmHg 76%
    19:00 +12°C° 0 mm 5 m/S 713 mmHg 78%
    20:00 +12°C° 0 mm 5 m/S 713 mmHg 80%
    21:00 +11°C° 0 mm 4 m/S 713 mmHg 81%
    22:00 +11°C° 0 mm 4 m/S 712 mmHg 82%
    23:00 +11°C° 0 mm 4 m/S 712 mmHg 83%

    Morgen, 14 Dezember, Donnerstag

    Zeit Temperatur Niederschläge Wind Luftdruck Luftfeuchtigkeit
    00:00 +11°C° 0 mm 4 m/S 712 mmHg 84%
    01:00 +10°C° 0 mm 5 m/S 712 mmHg 84%
    02:00 +10°C° 0 mm 5 m/S 712 mmHg 84%
    03:00 +10°C° 0 mm 5 m/S 711 mmHg 83%
    04:00 +10°C° 0 mm 5 m/S 711 mmHg 83%
    05:00 +10°C° 0 mm 6 m/S 711 mmHg 83%
    06:00 +10°C° 0 mm 6 m/S 711 mmHg 83%
    07:00 +10°C° 0 mm 6 m/S 711 mmHg 82%
    08:00 +10°C° 0 mm 6 m/S 711 mmHg 81%
    09:00 +11°C° 0 mm 6 m/S 711 mmHg 75%
    10:00 +14°C° 0 mm 6 m/S 712 mmHg 69%
    11:00 +15°C° 0 mm 6 m/S 712 mmHg 64%
    12:00 +15°C° 0 mm 6 m/S 711 mmHg 62%
    13:00 +16°C° 0 mm 7 m/S 711 mmHg 61%
    14:00 +16°C° 0 mm 7 m/S 710 mmHg 60%
    15:00 +15°C° 0 mm 7 m/S 710 mmHg 64%
    16:00 +14°C° 0 mm 6 m/S 710 mmHg 68%
    17:00 +13°C° 0 mm 6 m/S 710 mmHg 72%
    18:00 +13°C° 0 mm 6 m/S 710 mmHg 74%
    19:00 +13°C° 0 mm 6 m/S 710 mmHg 76%
    20:00 +11°C° 0 mm 6 m/S 710 mmHg 77%
    21:00 +11°C° 0 mm 6 m/S 710 mmHg 78%
    22:00 +11°C° 0 mm 6 m/S 710 mmHg 79%
    23:00 +10°C° 0 mm 6 m/S 710 mmHg 80%

    übermorgen, 15 Dezember, Freitag

    Zeit Temperatur Niederschläge Wind Luftdruck Luftfeuchtigkeit
    00:00 +10°C° 0 mm 6 m/S 710 mmHg 80%
    01:00 +9°C° 0 mm 5 m/S 710 mmHg 80%
    02:00 +9°C° 0 mm 5 m/S 710 mmHg 80%
    03:00 +9°C° 0 mm 5 m/S 710 mmHg 80%
    04:00 +8°C° 0 mm 5 m/S 710 mmHg 80%
    05:00 +8°C° 0 mm 4 m/S 709 mmHg 80%
    06:00 +8°C° 0 mm 4 m/S 710 mmHg 79%
    07:00 +8°C° 0 mm 4 m/S 710 mmHg 78%
    08:00 +10°C° 0 mm 4 m/S 710 mmHg 78%
    09:00 +11°C° 0 mm 4 m/S 711 mmHg 72%
    10:00 +13°C° 0 mm 4 m/S 711 mmHg 67%
    11:00 +14°C° 0 mm 4 m/S 711 mmHg 61%
    12:00 +14°C° 0 mm 4 m/S 711 mmHg 61%
    13:00 +15°C° 0 mm 4 m/S 711 mmHg 62%
    14:00 +15°C° 0 mm 5 m/S 710 mmHg 62%
    15:00 +14°C° 0 mm 5 m/S 710 mmHg 67%
    16:00 +13°C° 0 mm 5 m/S 710 mmHg 71%
    17:00 +13°C° 0 mm 5 m/S 710 mmHg 76%
    18:00 +12°C° 0 mm 4 m/S 710 mmHg 78%
    19:00 +12°C° 0 mm 4 m/S 710 mmHg 79%
    20:00 +11°C° 0 mm 3 m/S 710 mmHg 81%
    21:00 +11°C° 0 mm 4 m/S 711 mmHg 81%
    22:00 +11°C° 0 mm 4 m/S 711 mmHg 81%
    23:00 +11°C° 0 mm 4 m/S 711 mmHg 81%

    16 Dezember, Samstag

    Zeit Temperatur Niederschläge Wind Luftdruck Luftfeuchtigkeit
    00:00 +11°C° 0 mm 4 m/S 711 mmHg 81%
    01:00 +11°C° 0 mm 4 m/S 711 mmHg 81%
    02:00 +10°C° 0 mm 4 m/S 711 mmHg 81%
    03:00 +10°C° 0 mm 4 m/S 711 mmHg 81%
    04:00 +10°C° 0 mm 3 m/S 710 mmHg 82%
    05:00 +10°C° 0 mm 3 m/S 710 mmHg 82%
    06:00 +10°C° 0 mm 3 m/S 710 mmHg 82%
    07:00 +10°C° 0 mm 3 m/S 711 mmHg 82%
    08:00 +10°C° 0 mm 3 m/S 711 mmHg 82%
    09:00 +12°C° 0 mm 3 m/S 711 mmHg 77%
    10:00 +13°C° 0 mm 3 m/S 711 mmHg 73%
    11:00 +14°C° 0 mm 3 m/S 711 mmHg 68%
    12:00 +14°C° 0 mm 4 m/S 711 mmHg 68%
    13:00 +14°C° 0 mm 4 m/S 711 mmHg 68%
    14:00 +14°C° 0 mm 4 m/S 710 mmHg 67%
    15:00 +14°C° 0 mm 4 m/S 710 mmHg 70%
    16:00 +13°C° 0 mm 4 m/S 710 mmHg 74%
    17:00 +12°C° 0 mm 3 m/S 710 mmHg 77%
    18:00 +12°C° 0 mm 4 m/S 710 mmHg 79%
    19:00 +12°C° 0 mm 4 m/S 710 mmHg 82%
    20:00 +12°C° 0 mm 5 m/S 710 mmHg 85%
    21:00 +12°C° 0,1 mm 5 m/S 710 mmHg 83%
    22:00 +12°C° 0,1 mm 5 m/S 710 mmHg 82%
    23:00 +12°C° 0,1 mm 5 m/S 710 mmHg 81%

    17 Dezember, Sonntag

    Zeit Temperatur Niederschläge Wind Luftdruck Luftfeuchtigkeit
    00:00 +12°C° 0,3 mm 5 m/S 710 mmHg 82%
    01:00 +11°C° 0,3 mm 6 m/S 709 mmHg 82%
    02:00 +11°C° 0,3 mm 6 m/S 709 mmHg 83%
    03:00 +11°C° 0 mm 6 m/S 709 mmHg 83%
    04:00 +11°C° 0 mm 7 m/S 708 mmHg 83%
    05:00 +11°C° 0 mm 7 m/S 708 mmHg 83%
    06:00 +12°C° 0 mm 7 m/S 708 mmHg 82%
    07:00 +12°C° 0 mm 7 m/S 709 mmHg 81%
    08:00 +12°C° 0 mm 7 m/S 709 mmHg 80%
    09:00 +12°C° 0 mm 7 m/S 709 mmHg 75%
    10:00 +14°C° 0 mm 7 m/S 709 mmHg 71%
    11:00 +15°C° 0 mm 7 m/S 709 mmHg 66%
    12:00 +15°C° 0 mm 7 m/S 709 mmHg 65%
    13:00 +15°C° 0 mm 7 m/S 708 mmHg 64%
    14:00 +15°C° 0 mm 7 m/S 708 mmHg 63%
    15:00 +15°C° 0 mm 6 m/S 708 mmHg 66%
    16:00 +14°C° 0 mm 5 m/S 708 mmHg 68%
    17:00 +13°C° 0 mm 5 m/S 708 mmHg 71%
    18:00 +13°C° 0 mm 4 m/S 708 mmHg 74%
    19:00 +12°C° 0 mm 4 m/S 709 mmHg 78%
    20:00 +12°C° 0 mm 4 m/S 709 mmHg 81%
    21:00 +12°C° 0 mm 4 m/S 709 mmHg 84%
    22:00 +11°C° 0 mm 3 m/S 709 mmHg 87%
    23:00 +11°C° 0 mm 3 m/S 709 mmHg 89%

    18 Dezember, Montag

    Zeit Temperatur Niederschläge Wind Luftdruck Luftfeuchtigkeit
    00:00 +10°C° 0 mm 3 m/S 709 mmHg 89%
    01:00 +10°C° 0 mm 2 m/S 710 mmHg 89%
    02:00 +10°C° 0 mm 2 m/S 710 mmHg 89%
    03:00 +9°C° 0 mm 2 m/S 710 mmHg 88%
    04:00 +9°C° 0 mm 2 m/S 710 mmHg 87%
    05:00 +10°C° 0 mm 1 m/S 710 mmHg 86%
    06:00 +10°C° 0 mm 1 m/S 710 mmHg 84%
    07:00 +10°C° 0 mm 1 m/S 710 mmHg 82%
    08:00 +10°C° 0 mm 1 m/S 710 mmHg 79%
    09:00 +12°C° 0 mm 1 m/S 711 mmHg 70%
    10:00 +13°C° 0 mm 1 m/S 711 mmHg 62%
    11:00 +15°C° 0 mm 1 m/S 711 mmHg 53%
    12:00 +15°C° 0 mm 2 m/S 711 mmHg 54%
    13:00 +16°C° 0 mm 3 m/S 710 mmHg 54%
    14:00 +16°C° 0 mm 3 m/S 710 mmHg 55%
    15:00 +14°C° 0,1 mm 3 m/S 710 mmHg 59%
    16:00 +14°C° 0,1 mm 3 m/S 710 mmHg 63%
    17:00 +14°C° 0,1 mm 2 m/S 710 mmHg 67%
    18:00 +13°C° 0,1 mm 2 m/S 710 mmHg 70%
    19:00 +13°C° 0,1 mm 2 m/S 710 mmHg 73%
    20:00 +12°C° 0,1 mm 1 m/S 711 mmHg 77%
    21:00 +12°C° 0 mm 1 m/S 711 mmHg 76%
    22:00 +12°C° 0 mm 2 m/S 711 mmHg 75%
    23:00 +12°C° 0 mm 2 m/S 711 mmHg 75%
    Mehr zeigen